Change the Weather History Date:

Thursday, November 29, 2012

  Actual Average Record
Temperature  
Mean Temperature 37 °F -  
Max Temperature 48 °F 50 °F 69 °F (1998)
Min Temperature 26 °F 28 °F 16 °F (1969)
Degree Days  
Heating Degree Days 28    
Moisture  
Dew Point 22 °F    
Average Humidity 58    
Maximum Humidity 80    
Minimum Humidity 34    
Precipitation  
Precipitation 0.00 in - - ()
Sea Level Pressure  
Sea Level Pressure 30.33 in    
Wind  
Wind Speed 2 mph (South)    
Max Wind Speed 7 mph    
Max Gust Speed -    
Visibility 10 miles    
Events      
Averages and records for this station are not official NWS values.
T = Trace of Precipitation, MM = Missing Value Source: NWS Daily Summary

Daily Weather History Graph

Daily Weather History Graph

Search for Another Location

Airport or City:

Trip Planner

Search our weather history database for the weather conditions in past years. The results will help you decide how hot, cold, wet, or windy it might be!

Date:

Astronomy

Nov. 29, 2012 Rise Set
Actual Time 7:17 AM EST 5:10 PM EST
Civil Twilight 6:49 AM EST 5:39 PM EST
Nautical Twilight 6:17 AM EST 6:10 PM EST
Astronomical Twilight 5:46 AM EST 6:41 PM EST
Moon 6:12 PM EST (11/29) 8:02 AM EST (11/29)
Length of Visible Light 10h 49m
Length of Day
9h 53m
Full, 99% of the Moon is Illuminated
Nov 29
Full
Dec 6
Last Quarter
Dec 13
New
Dec 20
First Quarter
Dec 28
Full

Hourly Weather History & Observations

Time (EST) Temp. Windchill Dew Point Humidity Pressure Visibility Wind Dir Wind Speed Gust Speed Precip Events Conditions
12:15 AM 33.8 °F 29.6 °F 23.0 °F 65% 30.33 in 10.0 mi West 4.6 mph - N/A   Clear
12:35 AM 32.0 °F 26.4 °F 23.0 °F 69% 30.32 in 10.0 mi West 5.8 mph - N/A   Clear
12:55 AM 33.8 °F 27.7 °F 23.0 °F 65% 30.31 in 10.0 mi WNW 6.9 mph - N/A   Clear
1:15 AM 32.0 °F 26.4 °F 23.0 °F 69% 30.31 in 10.0 mi West 5.8 mph - N/A   Clear
1:35 AM 32.0 °F 25.6 °F 21.2 °F 64% 30.31 in 10.0 mi NW 6.9 mph - N/A   Clear
1:55 AM 32.0 °F - 21.2 °F 64% 30.31 in 10.0 mi Calm Calm - N/A   Clear
2:15 AM 32.0 °F - 21.2 °F 64% 30.31 in 10.0 mi Calm Calm - N/A   Clear
2:35 AM 32.0 °F - 21.2 °F 64% 30.32 in 10.0 mi Calm Calm - N/A   Clear
2:55 AM 28.4 °F - 21.2 °F 74% 30.32 in 10.0 mi Calm Calm - N/A   Clear
3:15 AM 30.2 °F 26.7 °F 21.2 °F 69% 30.32 in 10.0 mi WNW 3.5 mph - N/A   Clear
3:35 AM 30.2 °F - 21.2 °F 69% 30.32 in 10.0 mi Calm Calm - N/A   Clear
3:55 AM 30.2 °F - 21.2 °F 69% 30.32 in 10.0 mi Calm Calm - N/A   Clear
4:15 AM 30.2 °F - 21.2 °F 69% 30.31 in 10.0 mi Calm Calm - N/A   Clear
4:35 AM 30.2 °F - 21.2 °F 69% 30.32 in 10.0 mi Calm Calm - N/A   Clear
4:55 AM 28.4 °F - 21.2 °F 74% 30.32 in 10.0 mi Calm Calm - N/A   Clear
5:15 AM 26.6 °F - 21.2 °F 80% 30.32 in 10.0 mi Calm Calm - N/A   Clear
5:35 AM 26.6 °F - 21.2 °F 80% 30.33 in 10.0 mi Calm Calm - N/A   Clear
5:55 AM 28.4 °F - 21.2 °F 74% 30.33 in 10.0 mi Calm Calm - N/A   Clear
6:15 AM 28.4 °F - 21.2 °F 74% 30.32 in 10.0 mi Calm Calm - N/A   Clear
6:55 AM 28.4 °F - 19.4 °F 69% 30.33 in 10.0 mi Calm Calm - N/A   Clear
7:15 AM 28.4 °F 23.3 °F 19.4 °F 69% 30.33 in 10.0 mi WSW 4.6 mph - N/A   Clear
7:35 AM 28.4 °F - 19.4 °F 69% 30.34 in 10.0 mi Calm Calm - N/A   Clear
7:55 AM 30.2 °F - 19.4 °F 64% 30.34 in 10.0 mi Calm Calm - N/A   Clear
8:15 AM 28.4 °F 24.6 °F 19.4 °F 69% 30.35 in 10.0 mi WSW 3.5 mph - N/A   Clear
8:35 AM 30.2 °F - 19.4 °F 64% 30.35 in 10.0 mi Calm Calm - N/A   Clear
8:55 AM 32.0 °F - 19.4 °F 60% 30.36 in 10.0 mi Calm Calm - N/A   Clear
9:15 AM 32.0 °F - 19.4 °F 60% 30.36 in 10.0 mi Calm Calm - N/A   Clear
9:55 AM 35.6 °F - 23.0 °F 60% 30.38 in 10.0 mi Calm Calm - N/A   Clear
10:15 AM 35.6 °F - 23.0 °F 60% 30.38 in 10.0 mi Calm Calm - N/A   Clear
10:35 AM 37.4 °F 33.8 °F 21.2 °F 52% 30.38 in 10.0 mi South 4.6 mph - N/A   Clear
10:55 AM 39.2 °F - 21.2 °F 49% 30.38 in 10.0 mi Calm Calm - N/A   Clear
11:15 AM 41.0 °F - 21.2 °F 45% 30.37 in 10.0 mi Calm Calm - N/A   Clear
11:35 AM 42.8 °F - 17.6 °F 36% 30.37 in 10.0 mi Calm Calm - N/A   Clear
11:55 AM 44.6 °F 42.2 °F 17.6 °F 34% 30.36 in 10.0 mi East 4.6 mph - N/A   Clear
12:15 PM 44.6 °F - 17.6 °F 34% 30.36 in 10.0 mi Calm Calm - N/A   Clear
12:35 PM 44.6 °F 43.1 °F 19.4 °F 37% 30.35 in 10.0 mi SE 3.5 mph - N/A   Clear
12:55 PM 46.4 °F 42.9 °F 19.4 °F 34% 30.34 in 10.0 mi SE 6.9 mph - N/A   Clear
1:15 PM 46.4 °F 45.2 °F 19.4 °F 34% 30.33 in 10.0 mi SSE 3.5 mph - N/A   Clear
1:35 PM 46.4 °F 43.5 °F 19.4 °F 34% 30.32 in 10.0 mi SE 5.8 mph - N/A   Clear
1:55 PM 48.2 °F - 21.2 °F 34% 30.31 in 10.0 mi SSE 4.6 mph - N/A   Clear
2:15 PM 48.2 °F - 21.2 °F 34% 30.31 in 10.0 mi South 4.6 mph - N/A   Clear
2:35 PM 48.2 °F - 21.2 °F 34% 30.30 in 10.0 mi South 3.5 mph - N/A   Clear
2:55 PM 46.4 °F 45.2 °F 21.2 °F 37% 30.30 in 10.0 mi SSE 3.5 mph - N/A   Clear
3:15 PM 46.4 °F - 23.0 °F 40% 30.30 in 10.0 mi Calm Calm - N/A   Clear
3:35 PM 46.4 °F 45.2 °F 23.0 °F 40% 30.30 in 10.0 mi SSE 3.5 mph - N/A   Clear
3:55 PM 44.6 °F - 23.0 °F 43% 30.30 in 10.0 mi Calm Calm - N/A   Clear
4:15 PM 44.6 °F 42.2 °F 23.0 °F 43% 30.30 in 10.0 mi SSE 4.6 mph - N/A   Clear
4:35 PM 42.8 °F 41.1 °F 23.0 °F 46% 30.31 in 10.0 mi SSE 3.5 mph - N/A   Clear
4:55 PM 42.8 °F - 23.0 °F 46% 30.31 in 10.0 mi Calm Calm - N/A   Clear
5:15 PM 41.0 °F 39.0 °F 24.8 °F 53% 30.31 in 10.0 mi South 3.5 mph - N/A   Clear
5:35 PM 41.0 °F 39.0 °F 24.8 °F 53% 30.31 in 10.0 mi SSE 3.5 mph - N/A   Clear
5:55 PM 39.2 °F 37.0 °F 24.8 °F 56% 30.31 in 10.0 mi SSE 3.5 mph - N/A   Clear
6:15 PM 37.4 °F - 24.8 °F 60% 30.32 in 10.0 mi Calm Calm - N/A   Clear
7:15 PM 37.4 °F - 24.8 °F 60% 30.33 in 10.0 mi Calm Calm - N/A   Clear
7:35 PM 37.4 °F - 24.8 °F 60% 30.33 in 10.0 mi Calm Calm - N/A   Clear
7:55 PM 37.4 °F - 24.8 °F 60% 30.34 in 10.0 mi Calm Calm - N/A   Clear
8:15 PM 37.4 °F - 24.8 °F 60% 30.34 in 10.0 mi Calm Calm - N/A   Clear
8:35 PM 35.6 °F - 24.8 °F 65% 30.34 in 10.0 mi Calm Calm - N/A   Clear
8:55 PM 37.4 °F - 24.8 °F 60% 30.34 in 10.0 mi Calm Calm - N/A   Clear
9:15 PM 37.4 °F - 24.8 °F 60% 30.34 in 10.0 mi Calm Calm - N/A   Clear
9:35 PM 35.6 °F - 24.8 °F 65% 30.34 in 10.0 mi Calm Calm - N/A   Clear
9:55 PM 35.6 °F - 26.6 °F 70% 30.33 in 10.0 mi Calm Calm - N/A   Clear
10:15 PM 35.6 °F - 26.6 °F 70% 30.34 in 10.0 mi Calm Calm - N/A   Clear
10:35 PM 33.8 °F - 24.8 °F 70% 30.33 in 10.0 mi Calm Calm - N/A   Clear
10:55 PM 35.6 °F - 26.6 °F 70% 30.33 in 10.0 mi Calm Calm - N/A   Clear
11:15 PM 35.6 °F - 26.6 °F 70% 30.33 in 10.0 mi Calm Calm - N/A   Clear